Pajares, Asturias

latitud = 42° 58' 37''N | longitud = 005° 46' 41''W
1460 metros sobre el nivel del mar | datos mensuales

Fecha, hora, temperatura, viento dirección y velocidad, humedad y presión.

  • 16-08-2018 02:00:00 | 14.30°C | Sudoeste |10.00 km/h | 35.00% | 0.00 hPa
  • 16-08-2018 01:00:00 | 14.50°C | Sudoeste |12.00 km/h | 35.00% | 0.00 hPa
  • 16-08-2018 00:00:00 | 14.00°C | Sur |12.00 km/h | 44.00% | 0.00 hPa
  • 15-08-2018 23:00:00 | 13.80°C | Sur |8.00 km/h | 69.00% | 0.00 hPa
  • 15-08-2018 22:00:00 | 13.60°C | Sur |6.00 km/h | 66.00% | 0.00 hPa
  • 15-08-2018 21:00:00 | 15.10°C | Sur |4.00 km/h | 82.00% | 0.00 hPa
  • 15-08-2018 20:00:00 | 18.70°C | Oeste |2.00 km/h | 73.00% | 0.00 hPa
  • 15-08-2018 19:00:00 | 19.00°C | Noroeste |6.00 km/h | 68.00% | 0.00 hPa
  • 15-08-2018 18:00:00 | 19.60°C | Noroeste |6.00 km/h | 61.00% | 0.00 hPa
  • 15-08-2018 17:00:00 | 20.00°C | Noroeste |7.00 km/h | 60.00% | 0.00 hPa
  • 15-08-2018 16:00:00 | 20.40°C | Noroeste |7.00 km/h | 51.00% | 0.00 hPa
  • 15-08-2018 15:00:00 | 20.50°C | Noroeste |4.00 km/h | 47.00% | 0.00 hPa
  • 15-08-2018 14:00:00 | 20.70°C | Noroeste |5.00 km/h | 31.00% | 0.00 hPa
  • 15-08-2018 13:00:00 | 21.70°C | Norte |4.00 km/h | 27.00% | 0.00 hPa
  • 15-08-2018 12:00:00 | 21.50°C | Sur |9.00 km/h | 19.00% | 0.00 hPa
  • 15-08-2018 11:00:00 | 20.60°C | Sudeste |7.00 km/h | 22.00% | 0.00 hPa
  • 15-08-2018 10:00:00 | 18.00°C | Sur |17.00 km/h | 23.00% | 0.00 hPa
  • 15-08-2018 09:00:00 | 16.60°C | Sudeste |8.00 km/h | 25.00% | 0.00 hPa
  • 15-08-2018 08:00:00 | 13.40°C | Sur |12.00 km/h | 29.00% | 0.00 hPa
  • 15-08-2018 07:00:00 | 10.60°C | Sudoeste |13.00 km/h | 31.00% | 0.00 hPa
  • 15-08-2018 06:00:00 | 10.20°C | Sur |9.00 km/h | 38.00% | 0.00 hPa
  • 15-08-2018 05:00:00 | 10.40°C | Sur |6.00 km/h | 45.00% | 0.00 hPa
  • 15-08-2018 04:00:00 | 11.60°C | Calma |0.00 km/h | 50.00% | 0.00 hPa
  • 15-08-2018 03:00:00 | 12.00°C | Sudoeste |4.00 km/h | 57.00% | 0.00 hPa